This is the latest recevied weather packets stored in our database for station/object CA2RRL-10. If no packets are shown the sender has not sent any weather packets the latest 10 day(s).
| Time | Temp. | Humidity | Pressure | Rain* | Wind** | Luminosity | Snow |
|---|---|---|---|---|---|---|---|
| 1777728800 | 11.67° C | 54% | 1031.7 hPa | - | - | - | - |
| 1777727900 | 10.56° C | 59% | 1031.9 hPa | - | - | - | - |
| 1777727000 | 10° C | 61% | 1031.8 hPa | - | - | - | - |
| 1777726100 | 8.89° C | 62% | 1031.9 hPa | - | - | - | - |
| 1777725200 | 8.33° C | 64% | 1031.9 hPa | - | - | - | - |
| 1777724300 | 7.78° C | 65% | 1031.9 hPa | - | - | - | - |
| 1777723400 | 7.22° C | 65% | 1031.7 hPa | - | - | - | - |
| 1777722499 | 7.22° C | 65% | 1031.7 hPa | - | - | - | - |
| 1777721599 | 7.22° C | 65% | 1031.6 hPa | - | - | - | - |
| 1777720699 | 7.22° C | 65% | 1031.5 hPa | - | - | - | - |
| 1777719799 | 7.22° C | 65% | 1031.6 hPa | - | - | - | - |
| 1777718899 | 7.78° C | 65% | 1031.6 hPa | - | - | - | - |
| 1777717999 | 7.78° C | 65% | 1031.6 hPa | - | - | - | - |
| 1777717099 | 7.78° C | 65% | 1031.7 hPa | - | - | - | - |
| 1777716199 | 7.78° C | 65% | 1031.6 hPa | - | - | - | - |
| 1777715299 | 7.78° C | 65% | 1031.7 hPa | - | - | - | - |
| 1777714399 | 8.33° C | 65% | 1031.7 hPa | - | - | - | - |
| 1777713499 | 8.33° C | 65% | 1031.9 hPa | - | - | - | - |
| 1777712599 | 8.33° C | 65% | 1031.9 hPa | - | - | - | - |
| 1777711699 | 8.33° C | 65% | 1032 hPa | - | - | - | - |
| 1777710799 | 8.89° C | 65% | 1032 hPa | - | - | - | - |
| 1777709898 | 8.89° C | 66% | 1032.1 hPa | - | - | - | - |
| 1777708998 | 8.89° C | 65% | 1032.1 hPa | - | - | - | - |
| 1777708098 | 9.44° C | 64% | 1032.2 hPa | - | - | - | - |
| 1777707198 | 9.44° C | 65% | 1032.3 hPa | - | - | - | - |
* Rain since midnight (hover to see other rain measurements)
** Current wind speed in m/s (hover to see current wind gust speed)